{"data":{"norad_id":64623,"intl_designator":"2025-138C","name":"HAWK-12A","alt_names":[],"object_type":"PAYLOAD","status":"ACTIVE","operator":null,"country":"US","launch_date":"2025-06-26","launch_site_code":"RLLB","launch_vehicle":null,"mission":null,"orbit_class":"UNKNOWN","rcs_meters":null,"size_class":null,"mass_kg":null,"dimensions":null,"purposes":[],"wikipedia_slug":null,"has_3d_model":false,"image_url":null,"decayed_at":null,"tle_current":{"epoch":"2026-05-24T23:20:12.424992Z","epoch_age_seconds":67617,"freshness":"FRESH","line1":"1 64623U 25138C   26144.97236603  .00003377  00000+0  16910-3 0  9992","line2":"2 64623  97.4408 148.1212 0012919 212.1106 147.9342 15.18000415 50346","mean_motion":15.18000415,"eccentricity":0.0012919,"inclination_deg":97.4408,"raan_deg":148.1212,"arg_perigee_deg":212.1106,"mean_anomaly_deg":147.9342,"bstar":0.0001691,"rev_number":5034,"period_min":94.861634145205,"perigee_km":502.98334498084,"apogee_km":520.78578269749,"semimajor_km":6890.0215638392,"source":"CELESTRAK","updated_at":"2026-05-25T13:38:04.670212Z"}}}